Location: Wald
(31.7579°N, 86.6655°W)
Time: 12:15:07
(UTC+00:00)

Cosmos 2034 Rocket - Pass Details

Date: 14 July 2020
Orbit: 959 x 1000 km, 82.9° (Epoch: 08 August)

Event Time Altitude Azimuth Distance (km) Brightness Sun altitude
Exits shadow 09:08:07 18° 181° (S) 2,147 5.4 -19.1°
Maximum altitude 09:12:49 84° 95° (E) 968 4.0 -18.3°
Drops below altitude 10° 09:18:59 10° 7° (N) 2,698 7.0 -17.3°
Sets 09:21:30 0° 7° (N) 3,651 7.7 -16.9°
